Time,TemperatureF,DewpointF,PressureIn,WindDirection,WindDirectionDegrees,WindSpeedMPH,WindSpeedGustMPH,Humidity,HourlyPrecipIn,Conditions,Clouds,dailyrainin,SoftwareType,DateUTC
2013-05-12 00:05:00,59.9,40.1,30.04,SE,145,0.0,1.0,48,0.00,,,0.00,Wunderground v.1.15,2013-05-12 07:05:00,
2013-05-12 00:10:00,59.8,40.1,30.04,SE,145,0.0,0.0,48,0.00,,,0.00,Wunderground v.1.15,2013-05-12 07:10:00,
2013-05-12 00:15:00,59.5,39.8,30.02,SE,145,0.0,0.0,48,0.00,,,0.00,Wunderground v.1.15,2013-05-12 07:15:00,
2013-05-12 00:21:00,59.2,40.6,30.02,SE,145,0.0,0.0,50,0.00,,,0.00,Wunderground v.1.15,2013-05-12 07:21:00,
2013-05-12 00:26:00,58.7,40.1,30.02,SE,145,0.0,0.0,50,0.00,,,0.00,Wunderground v.1.15,2013-05-12 07:26:00,
2013-05-12 00:31:00,58.3,40.7,30.02,SE,145,0.0,0.0,52,0.00,,,0.00,Wunderground v.1.15,2013-05-12 07:31:00,
2013-05-12 00:37:00,57.8,40.8,30.02,SE,145,0.0,1.0,53,0.00,,,0.00,Wunderground v.1.15,2013-05-12 07:37:00,
2013-05-12 00:42:00,57.5,41.0,30.02,SE,145,0.0,0.0,54,0.00,,,0.00,Wunderground v.1.15,2013-05-12 07:42:00,
2013-05-12 00:48:00,57.0,41.0,30.03,SE,145,0.0,1.0,55,0.00,,,0.00,Wunderground v.1.15,2013-05-12 07:48:00,
2013-05-12 00:53:00,56.7,41.2,30.03,SE,145,0.0,0.0,56,0.00,,,0.00,Wunderground v.1.15,2013-05-12 07:53:00,
2013-05-12 00:59:00,56.5,41.0,30.03,SE,145,0.0,0.0,56,0.00,,,0.00,Wunderground v.1.15,2013-05-12 07:59:00,
2013-05-12 01:04:00,56.2,41.2,30.03,SE,145,0.0,0.0,57,0.00,,,0.00,Wunderground v.1.15,2013-05-12 08:04:00,
2013-05-12 01:10:00,56.0,41.4,30.03,SE,145,0.0,0.0,58,0.00,,,0.00,Wunderground v.1.15,2013-05-12 08:10:00,
2013-05-12 01:15:00,55.6,40.6,30.04,SE,143,0.0,1.0,57,0.00,,,0.00,Wunderground v.1.15,2013-05-12 08:15:00,
2013-05-12 01:20:00,55.4,40.9,30.04,SE,141,0.0,0.0,58,0.00,,,0.00,Wunderground v.1.15,2013-05-12 08:20:00,
2013-05-12 01:26:00,55.3,40.8,30.04,SE,141,0.0,0.0,58,0.00,,,0.00,Wunderground v.1.15,2013-05-12 08:26:00,
2013-05-12 01:31:00,55.1,40.6,30.03,SE,141,0.0,0.0,58,0.00,,,0.00,Wunderground v.1.15,2013-05-12 08:31:00,
2013-05-12 01:37:00,55.1,41.0,30.03,SE,141,0.0,0.0,59,0.00,,,0.00,Wunderground v.1.15,2013-05-12 08:37:00,
2013-05-12 01:42:00,55.0,40.9,30.03,SE,141,0.0,0.0,59,0.00,,,0.00,Wunderground v.1.15,2013-05-12 08:42:00,
2013-05-12 01:47:00,54.7,41.1,30.03,SE,141,1.0,1.0,60,0.00,,,0.00,Wunderground v.1.15,2013-05-12 08:47:00,
2013-05-12 01:53:00,54.5,40.9,30.03,SE,141,0.0,0.0,60,0.00,,,0.00,Wunderground v.1.15,2013-05-12 08:53:00,
2013-05-12 01:58:00,54.4,40.8,30.03,SE,141,0.0,0.0,60,0.00,,,0.00,Wunderground v.1.15,2013-05-12 08:58:00,
2013-05-12 02:03:00,54.2,40.2,30.04,SE,141,0.0,1.0,59,0.00,,,0.00,Wunderground v.1.15,2013-05-12 09:03:00,
2013-05-12 02:08:00,54.1,40.1,30.04,SE,141,0.0,1.0,59,0.00,,,0.00,Wunderground v.1.15,2013-05-12 09:08:00,
2013-05-12 02:13:00,53.9,40.3,30.04,SE,141,0.0,0.0,60,0.00,,,0.00,Wunderground v.1.15,2013-05-12 09:13:00,
2013-05-12 02:19:00,53.5,40.4,30.04,SE,141,0.0,1.0,61,0.00,,,0.00,Wunderground v.1.15,2013-05-12 09:19:00,
2013-05-12 02:24:00,53.2,40.5,30.04,SE,141,0.0,0.0,62,0.00,,,0.00,Wunderground v.1.15,2013-05-12 09:24:00,
2013-05-12 02:29:00,52.9,40.2,30.04,SE,141,0.0,0.0,62,0.00,,,0.00,Wunderground v.1.15,2013-05-12 09:29:00,
2013-05-12 02:34:00,52.8,40.5,30.04,SE,141,0.0,1.0,63,0.00,,,0.00,Wunderground v.1.15,2013-05-12 09:34:00,
2013-05-12 02:39:00,52.5,40.3,30.04,SE,141,0.0,1.0,63,0.00,,,0.00,Wunderground v.1.15,2013-05-12 09:39:00,
2013-05-12 02:44:00,52.3,40.5,30.04,SE,141,0.0,1.0,64,0.00,,,0.00,Wunderground v.1.15,2013-05-12 09:44:00,
2013-05-12 02:49:00,52.2,40.8,30.05,SE,141,0.0,1.0,65,0.00,,,0.00,Wunderground v.1.15,2013-05-12 09:49:00,
2013-05-12 02:54:00,52.0,40.6,30.05,SE,141,0.0,0.0,65,0.00,,,0.00,Wunderground v.1.15,2013-05-12 09:54:00,
2013-05-12 02:59:00,51.9,40.5,30.05,SE,141,1.0,1.0,65,0.00,,,0.00,Wunderground v.1.15,2013-05-12 09:59:00,
2013-05-12 03:04:00,51.9,40.9,30.05,ESE,121,0.0,2.0,66,0.00,,,0.00,Wunderground v.1.15,2013-05-12 10:04:00,
2013-05-12 03:09:00,51.9,41.3,30.05,ESE,102,2.0,6.0,67,0.00,,,0.00,Wunderground v.1.15,2013-05-12 10:09:00,
2013-05-12 03:14:00,52.2,41.2,30.03,ESE,102,6.0,8.0,66,0.00,,,0.00,Wunderground v.1.15,2013-05-12 10:14:00,
2013-05-12 03:19:00,52.5,40.7,30.03,ESE,104,4.0,8.0,64,0.00,,,0.00,Wunderground v.1.15,2013-05-12 10:19:00,
2013-05-12 03:24:00,52.6,40.4,30.03,ESE,107,1.0,6.0,63,0.00,,,0.00,Wunderground v.1.15,2013-05-12 10:24:00,
2013-05-12 03:29:00,52.6,39.9,30.03,ESE,113,4.0,6.0,62,0.00,,,0.00,Wunderground v.1.15,2013-05-12 10:29:00,
2013-05-12 03:34:00,52.6,40.4,30.03,ESE,113,2.0,6.0,63,0.00,,,0.00,Wunderground v.1.15,2013-05-12 10:34:00,
2013-05-12 03:39:00,52.8,40.5,30.03,ESE,106,2.0,7.0,63,0.00,,,0.00,Wunderground v.1.15,2013-05-12 10:39:00,
2013-05-12 03:45:00,52.8,40.1,30.03,ESE,109,4.0,7.0,62,0.00,,,0.00,Wunderground v.1.15,2013-05-12 10:45:00,
2013-05-12 03:50:00,52.8,40.1,30.03,ESE,113,2.0,4.0,62,0.00,,,0.00,Wunderground v.1.15,2013-05-12 10:50:00,
2013-05-12 03:55:00,52.8,40.1,30.03,ESE,112,1.0,4.0,62,0.00,,,0.00,Wunderground v.1.15,2013-05-12 10:55:00,
2013-05-12 04:00:00,52.5,39.8,30.03,ESE,112,0.0,1.0,62,0.00,,,0.00,Wunderground v.1.15,2013-05-12 11:00:00,
2013-05-12 04:05:00,52.3,40.1,30.03,ESE,106,0.0,4.0,63,0.00,,,0.00,Wunderground v.1.15,2013-05-12 11:05:00,
2013-05-12 04:10:00,52.2,40.0,30.03,ESE,104,1.0,1.0,63,0.00,,,0.00,Wunderground v.1.15,2013-05-12 11:10:00,
2013-05-12 04:15:00,51.9,40.1,30.04,ESE,104,1.0,2.0,64,0.00,,,0.00,Wunderground v.1.15,2013-05-12 11:15:00,
2013-05-12 04:20:00,51.6,40.2,30.04,ESE,104,0.0,0.0,65,0.00,,,0.00,Wunderground v.1.15,2013-05-12 11:20:00,
2013-05-12 04:25:00,51.3,39.9,30.04,ESE,104,0.0,1.0,65,0.00,,,0.00,Wunderground v.1.15,2013-05-12 11:25:00,
2013-05-12 04:30:00,51.0,40.0,30.04,ESE,104,0.0,1.0,66,0.00,,,0.00,Wunderground v.1.15,2013-05-12 11:30:00,
2013-05-12 04:35:00,50.7,39.7,30.04,ESE,104,0.0,1.0,66,0.00,,,0.00,Wunderground v.1.15,2013-05-12 11:35:00,
2013-05-12 04:40:00,50.4,39.9,30.04,ESE,104,0.0,0.0,67,0.00,,,0.00,Wunderground v.1.15,2013-05-12 11:40:00,
2013-05-12 04:46:00,50.1,39.6,30.05,ESE,104,0.0,1.0,67,0.00,,,0.00,Wunderground v.1.15,2013-05-12 11:46:00,
2013-05-12 04:51:00,49.9,39.4,30.05,ESE,104,0.0,1.0,67,0.00,,,0.00,Wunderground v.1.15,2013-05-12 11:51:00,
2013-05-12 04:56:00,49.6,39.1,30.05,ESE,104,1.0,2.0,67,0.00,,,0.00,Wunderground v.1.15,2013-05-12 11:56:00,
2013-05-12 05:01:00,49.5,39.4,30.05,ESE,104,0.0,2.0,68,0.00,,,0.00,Wunderground v.1.15,2013-05-12 12:01:00,
2013-05-12 05:06:00,49.4,39.3,30.05,ESE,104,0.0,4.0,68,0.00,,,0.00,Wunderground v.1.15,2013-05-12 12:06:00,
2013-05-12 05:11:00,49.4,39.3,30.05,ESE,104,0.0,2.0,68,0.00,,,0.00,Wunderground v.1.15,2013-05-12 12:11:00,
2013-05-12 05:16:00,49.4,38.9,30.07,ESE,104,1.0,2.0,67,0.00,,,0.00,Wunderground v.1.15,2013-05-12 12:16:00,
2013-05-12 05:21:00,49.2,38.7,30.07,ESE,104,1.0,2.0,67,0.00,,,0.00,Wunderground v.1.15,2013-05-12 12:21:00,
2013-05-12 05:26:00,49.2,38.7,30.07,ESE,104,0.0,2.0,67,0.00,,,0.00,Wunderground v.1.15,2013-05-12 12:26:00,
2013-05-12 05:31:00,49.2,38.7,30.08,ESE,104,0.0,0.0,67,0.00,,,0.00,Wunderground v.1.15,2013-05-12 12:31:00,
2013-05-12 05:37:00,49.2,38.3,30.08,ESE,104,0.0,1.0,66,0.00,,,0.00,Wunderground v.1.15,2013-05-12 12:37:00,
2013-05-12 05:42:00,49.1,38.6,30.08,ESE,104,1.0,2.0,67,0.00,,,0.00,Wunderground v.1.15,2013-05-12 12:42:00,
2013-05-12 05:47:00,49.2,38.3,30.08,ESE,104,4.0,6.0,66,0.00,,,0.00,Wunderground v.1.15,2013-05-12 12:47:00,
2013-05-12 05:52:00,49.4,38.5,30.08,ESE,104,0.0,4.0,66,0.00,,,0.00,Wunderground v.1.15,2013-05-12 12:52:00,
2013-05-12 05:57:00,49.5,38.2,30.08,ESE,104,0.0,4.0,65,0.00,,,0.00,Wunderground v.1.15,2013-05-12 12:57:00,
2013-05-12 06:02:00,49.5,38.6,30.09,ESE,104,0.0,0.0,66,0.00,,,0.00,Wunderground v.1.15,2013-05-12 13:02:00,
2013-05-12 06:07:00,49.4,38.5,30.09,ESE,104,0.0,1.0,66,0.00,,,0.00,Wunderground v.1.15,2013-05-12 13:07:00,
2013-05-12 06:12:00,49.2,39.1,30.09,ESE,106,0.0,2.0,68,0.00,,,0.00,Wunderground v.1.15,2013-05-12 13:12:00,
2013-05-12 06:18:00,48.9,38.8,30.11,ESE,106,0.0,2.0,68,0.00,,,0.00,Wunderground v.1.15,2013-05-12 13:18:00,
2013-05-12 06:23:00,48.9,38.8,30.11,ESE,106,0.0,0.0,68,0.00,,,0.00,Wunderground v.1.15,2013-05-12 13:23:00,
2013-05-12 06:28:00,49.1,39.4,30.11,ESE,106,0.0,0.0,69,0.00,,,0.00,Wunderground v.1.15,2013-05-12 13:28:00,
2013-05-12 06:33:00,49.2,39.1,30.11,ESE,106,0.0,0.0,68,0.00,,,0.00,Wunderground v.1.15,2013-05-12 13:33:00,
2013-05-12 06:39:00,49.4,39.3,30.11,ESE,106,0.0,0.0,68,0.00,,,0.00,Wunderground v.1.15,2013-05-12 13:39:00,
2013-05-12 06:44:00,49.6,39.1,30.11,ESE,106,0.0,0.0,67,0.00,,,0.00,Wunderground v.1.15,2013-05-12 13:44:00,
2013-05-12 06:49:00,50.2,39.7,30.11,ESE,106,0.0,1.0,67,0.00,,,0.00,Wunderground v.1.15,2013-05-12 13:49:00,
2013-05-12 06:54:00,50.8,40.6,30.11,ESE,106,0.0,0.0,68,0.00,,,0.00,Wunderground v.1.15,2013-05-12 13:54:00,
2013-05-12 06:59:00,51.4,41.6,30.11,ESE,106,0.0,1.0,69,0.00,,,0.00,Wunderground v.1.15,2013-05-12 13:59:00,
2013-05-12 07:04:00,51.9,40.5,30.10,East,92,0.0,2.0,65,0.00,,,0.00,Wunderground v.1.15,2013-05-12 14:04:00,
2013-05-12 07:09:00,52.6,41.2,30.10,East,90,0.0,2.0,65,0.00,,,0.00,Wunderground v.1.15,2013-05-12 14:09:00,
2013-05-12 07:14:00,53.2,40.9,30.12,NNW,332,0.0,1.0,63,0.00,,,0.00,Wunderground v.1.15,2013-05-12 14:14:00,
2013-05-12 07:19:00,54.1,41.4,30.12,NNW,332,0.0,1.0,62,0.00,,,0.00,Wunderground v.1.15,2013-05-12 14:19:00,
2013-05-12 07:24:00,55.0,40.9,30.12,NNW,332,0.0,0.0,59,0.00,,,0.00,Wunderground v.1.15,2013-05-12 14:24:00,
2013-05-12 07:29:00,56.0,41.0,30.11,NNW,332,0.0,0.0,57,0.00,,,0.00,Wunderground v.1.15,2013-05-12 14:29:00,
2013-05-12 07:34:00,57.0,40.0,30.11,NNW,332,0.0,1.0,53,0.00,,,0.00,Wunderground v.1.15,2013-05-12 14:34:00,
2013-05-12 07:39:00,58.3,40.2,30.11,NNW,332,0.0,1.0,51,0.00,,,0.00,Wunderground v.1.15,2013-05-12 14:39:00,
2013-05-12 07:44:00,59.5,39.2,30.09,NNW,332,0.0,0.0,47,0.00,,,0.00,Wunderground v.1.15,2013-05-12 14:44:00,
2013-05-12 07:49:00,60.4,40.1,30.09,NNW,332,0.0,0.0,47,0.00,,,0.00,Wunderground v.1.15,2013-05-12 14:49:00,
2013-05-12 07:54:00,61.5,39.4,30.09,NNW,332,0.0,1.0,44,0.00,,,0.00,Wunderground v.1.15,2013-05-12 14:54:00,
2013-05-12 07:59:00,62.6,39.8,30.08,NNW,332,0.0,1.0,43,0.00,,,0.00,Wunderground v.1.15,2013-05-12 14:59:00,
2013-05-12 08:04:00,63.5,40.0,30.08,NNW,332,0.0,0.0,42,0.00,,,0.00,Wunderground v.1.15,2013-05-12 15:04:00,
2013-05-12 08:09:00,64.2,40.6,30.08,NNW,332,0.0,0.0,42,0.00,,,0.00,Wunderground v.1.15,2013-05-12 15:09:00,
2013-05-12 08:14:00,65.2,40.9,30.08,NNW,332,0.0,0.0,41,0.00,,,0.00,Wunderground v.1.15,2013-05-12 15:14:00,
2013-05-12 08:19:00,65.6,41.3,30.08,NNW,332,0.0,0.0,41,0.00,,,0.00,Wunderground v.1.15,2013-05-12 15:19:00,
2013-05-12 08:24:00,65.8,42.7,30.08,NNW,332,0.0,1.0,43,0.00,,,0.00,Wunderground v.1.15,2013-05-12 15:24:00,
2013-05-12 08:30:00,66.1,44.7,30.07,NNW,332,0.0,0.0,46,0.00,,,0.00,Wunderground v.1.15,2013-05-12 15:30:00,
2013-05-12 08:35:00,66.3,44.9,30.07,NNW,332,0.0,1.0,46,0.00,,,0.00,Wunderground v.1.15,2013-05-12 15:35:00,
2013-05-12 08:40:00,66.4,41.3,30.07,NNW,332,0.0,0.0,40,0.00,,,0.00,Wunderground v.1.15,2013-05-12 15:40:00,
2013-05-12 08:45:00,66.6,41.5,30.07,NNW,332,0.0,0.0,40,0.00,,,0.00,Wunderground v.1.15,2013-05-12 15:45:00,
2013-05-12 08:50:00,66.6,42.2,30.07,NNW,332,0.0,0.0,41,0.00,,,0.00,Wunderground v.1.15,2013-05-12 15:50:00,
2013-05-12 08:55:00,66.6,43.4,30.07,NE,41,0.0,2.0,43,0.00,,,0.00,Wunderground v.1.15,2013-05-12 15:55:00,
2013-05-12 09:00:00,66.3,44.9,30.08,NNE,23,0.0,0.0,46,0.00,,,0.00,Wunderground v.1.15,2013-05-12 16:00:00,
2013-05-12 09:05:00,66.1,44.1,30.08,North,7,0.0,4.0,45,0.00,,,0.00,Wunderground v.1.15,2013-05-12 16:05:00,
2013-05-12 09:10:00,66.1,45.8,30.08,NNE,21,1.0,1.0,48,0.00,,,0.00,Wunderground v.1.15,2013-05-12 16:10:00,
2013-05-12 09:15:00,66.3,40.6,30.09,NW,311,0.0,1.0,39,0.00,,,0.00,Wunderground v.1.15,2013-05-12 16:15:00,
2013-05-12 09:20:00,66.6,39.5,30.09,NW,311,0.0,0.0,37,0.00,,,0.00,Wunderground v.1.15,2013-05-12 16:20:00,
2013-05-12 09:25:00,66.9,39.8,30.09,ESE,123,0.0,4.0,37,0.00,,,0.00,Wunderground v.1.15,2013-05-12 16:25:00,
2013-05-12 09:30:00,67.4,38.8,30.09,ESE,123,1.0,2.0,35,0.00,,,0.00,Wunderground v.1.15,2013-05-12 16:30:00,
2013-05-12 09:35:00,68.3,40.3,30.09,ESE,123,0.0,2.0,36,0.00,,,0.00,Wunderground v.1.15,2013-05-12 16:35:00,
2013-05-12 09:40:00,68.9,42.9,30.09,ESE,123,0.0,0.0,39,0.00,,,0.00,Wunderground v.1.15,2013-05-12 16:40:00,
2013-05-12 09:45:00,69.3,43.9,30.07,South,188,1.0,1.0,40,0.00,,,0.00,Wunderground v.1.15,2013-05-12 16:45:00,
2013-05-12 09:50:00,69.6,42.2,30.07,South,185,0.0,0.0,37,0.00,,,0.00,Wunderground v.1.15,2013-05-12 16:50:00,
2013-05-12 09:55:00,69.9,42.4,30.07,NNW,336,0.0,1.0,37,0.00,,,0.00,Wunderground v.1.15,2013-05-12 16:55:00,
2013-05-12 10:00:00,70.3,42.1,30.07,NNW,333,0.0,0.0,36,0.00,,,0.00,Wunderground v.1.15,2013-05-12 17:00:00,
2013-05-12 10:05:00,70.8,42.5,30.07,NW,325,1.0,1.0,36,0.00,,,0.00,Wunderground v.1.15,2013-05-12 17:05:00,
2013-05-12 10:10:00,71.1,44.2,30.07,North,356,1.0,1.0,38,0.00,,,0.00,Wunderground v.1.15,2013-05-12 17:10:00,
2013-05-12 10:15:00,71.6,46.0,30.06,NW,322,2.0,6.0,40,0.00,,,0.00,Wunderground v.1.15,2013-05-12 17:15:00,
2013-05-12 10:20:00,71.8,44.8,30.06,North,0,0.0,2.0,38,0.00,,,0.00,Wunderground v.1.15,2013-05-12 17:20:00,
2013-05-12 10:26:00,72.3,45.3,30.06,North,0,1.0,6.0,38,0.00,,,0.00,Wunderground v.1.15,2013-05-12 17:26:00,
2013-05-12 10:31:00,72.8,45.0,30.05,South,176,0.0,1.0,37,0.00,,,0.00,Wunderground v.1.15,2013-05-12 17:31:00,
2013-05-12 10:36:00,73.2,39.9,30.05,ESE,107,0.0,2.0,30,0.00,,,0.00,Wunderground v.1.15,2013-05-12 17:36:00,
2013-05-12 10:41:00,73.7,39.5,30.05,ESE,107,0.0,0.0,29,0.00,,,0.00,Wunderground v.1.15,2013-05-12 17:41:00,
2013-05-12 10:46:00,74.4,44.2,30.05,NW,320,0.0,2.0,34,0.00,,,0.00,Wunderground v.1.15,2013-05-12 17:46:00,
2013-05-12 10:51:00,75.3,42.6,30.05,NW,320,0.0,1.0,31,0.00,,,0.00,Wunderground v.1.15,2013-05-12 17:51:00,
2013-05-12 10:56:00,75.6,40.2,30.05,NNE,30,4.0,6.0,28,0.00,,,0.00,Wunderground v.1.15,2013-05-12 17:56:00,
2013-05-12 11:01:00,76.0,37.6,30.04,ENE,58,1.0,2.0,25,0.00,,,0.00,Wunderground v.1.15,2013-05-12 18:01:00,
2013-05-12 11:06:00,76.5,41.0,30.04,NNW,339,4.0,8.0,28,0.00,,,0.00,Wunderground v.1.15,2013-05-12 18:06:00,
2013-05-12 11:11:00,76.8,31.4,30.04,NNE,21,2.0,4.0,19,0.00,,,0.00,Wunderground v.1.15,2013-05-12 18:11:00,
2013-05-12 11:17:00,77.4,34.4,30.05,North,353,0.0,7.0,21,0.00,,,0.00,Wunderground v.1.15,2013-05-12 18:17:00,
2013-05-12 11:22:00,78.1,32.5,30.05,East,90,0.0,6.0,19,0.00,,,0.00,Wunderground v.1.15,2013-05-12 18:22:00,
2013-05-12 11:27:00,78.5,36.5,30.05,NW,323,1.0,8.0,22,0.00,,,0.00,Wunderground v.1.15,2013-05-12 18:27:00,
2013-05-12 11:32:00,78.6,32.9,30.04,North,353,0.0,4.0,19,0.00,,,0.00,Wunderground v.1.15,2013-05-12 18:32:00,
2013-05-12 11:37:00,78.8,31.7,30.04,NNE,24,6.0,7.0,18,0.00,,,0.00,Wunderground v.1.15,2013-05-12 18:37:00,
2013-05-12 11:43:00,79.2,29.1,30.04,North,0,6.0,6.0,16,0.00,,,0.00,Wunderground v.1.15,2013-05-12 18:43:00,
2013-05-12 11:49:00,79.2,30.6,30.04,NW,325,0.0,7.0,17,0.00,,,0.00,Wunderground v.1.15,2013-05-12 18:49:00,
2013-05-12 11:54:00,79.4,32.2,30.04,NNE,30,4.0,6.0,18,0.00,,,0.00,Wunderground v.1.15,2013-05-12 18:54:00,
2013-05-12 11:59:00,79.8,33.9,30.04,NE,56,2.0,8.0,19,0.00,,,0.00,Wunderground v.1.15,2013-05-12 18:59:00,
2013-05-12 12:04:00,79.9,32.6,30.02,North,356,1.0,7.0,18,0.00,,,0.00,Wunderground v.1.15,2013-05-12 19:04:00,
2013-05-12 12:09:00,80.1,31.3,30.02,NE,35,2.0,8.0,17,0.00,,,0.00,Wunderground v.1.15,2013-05-12 19:09:00,
2013-05-12 12:14:00,80.3,32.9,30.02,West,280,0.0,7.0,18,0.00,,,0.00,Wunderground v.1.15,2013-05-12 19:14:00,
2013-05-12 12:19:00,80.5,33.1,30.03,NNW,337,6.0,10.0,18,0.00,,,0.00,Wunderground v.1.15,2013-05-12 19:19:00,
2013-05-12 12:24:00,80.5,31.7,30.03,NE,34,0.0,7.0,17,0.00,,,0.00,Wunderground v.1.15,2013-05-12 19:24:00,
2013-05-12 12:29:00,80.7,34.6,30.03,NNW,339,0.0,10.0,19,0.00,,,0.00,Wunderground v.1.15,2013-05-12 19:29:00,
2013-05-12 12:34:00,80.9,33.4,30.02,NNE,28,9.0,9.0,18,0.00,,,0.00,Wunderground v.1.15,2013-05-12 19:34:00,
2013-05-12 12:39:00,81.1,36.2,30.02,NNW,343,4.0,10.0,20,0.00,,,0.00,Wunderground v.1.15,2013-05-12 19:39:00,
2013-05-12 12:44:00,81.1,34.9,30.02,NW,309,7.0,13.0,19,0.00,,,0.00,Wunderground v.1.15,2013-05-12 19:44:00,
2013-05-12 12:49:00,81.2,35.0,30.02,WNW,294,1.0,13.0,19,0.00,,,0.00,Wunderground v.1.15,2013-05-12 19:49:00,
2013-05-12 12:54:00,81.4,35.2,30.02,North,349,2.0,6.0,19,0.00,,,0.00,Wunderground v.1.15,2013-05-12 19:54:00,
2013-05-12 12:59:00,81.6,34.0,30.02,NW,308,2.0,9.0,18,0.00,,,0.00,Wunderground v.1.15,2013-05-12 19:59:00,
2013-05-12 13:04:00,81.8,36.8,30.01,NNW,332,4.0,9.0,20,0.00,,,0.00,Wunderground v.1.15,2013-05-12 20:04:00,
2013-05-12 13:09:00,82.2,37.1,30.01,North,357,2.0,9.0,20,0.00,,,0.00,Wunderground v.1.15,2013-05-12 20:09:00,
2013-05-12 13:14:00,82.8,37.6,30.01,NW,309,7.0,10.0,20,0.00,,,0.00,Wunderground v.1.15,2013-05-12 20:14:00,
2013-05-12 13:19:00,82.8,34.9,30.01,North,0,6.0,10.0,18,0.00,,,0.00,Wunderground v.1.15,2013-05-12 20:19:00,
2013-05-12 13:24:00,82.6,33.4,30.01,West,267,8.0,11.0,17,0.00,,,0.00,Wunderground v.1.15,2013-05-12 20:24:00,
2013-05-12 13:29:00,82.8,34.9,30.01,WNW,298,0.0,11.0,18,0.00,,,0.00,Wunderground v.1.15,2013-05-12 20:29:00,
2013-05-12 13:35:00,83.2,35.3,30.01,West,272,4.0,9.0,18,0.00,,,0.00,Wunderground v.1.15,2013-05-12 20:35:00,
2013-05-12 13:40:00,83.4,35.4,30.01,NW,308,7.0,7.0,18,0.00,,,0.00,Wunderground v.1.15,2013-05-12 20:40:00,
2013-05-12 13:45:00,83.4,34.0,30.00,North,354,1.0,15.0,17,0.00,,,0.00,Wunderground v.1.15,2013-05-12 20:45:00,
2013-05-12 13:50:00,83.6,34.2,30.00,NNW,336,6.0,6.0,17,0.00,,,0.00,Wunderground v.1.15,2013-05-12 20:50:00,
2013-05-12 13:55:00,83.6,35.6,30.00,West,263,2.0,9.0,18,0.00,,,0.00,Wunderground v.1.15,2013-05-12 20:55:00,
2013-05-12 14:00:00,83.8,34.3,29.99,NW,325,2.0,3.0,17,0.00,,,0.00,Wunderground v.1.15,2013-05-12 21:00:00,
2013-05-12 14:05:00,84.1,33.0,29.99,WNW,284,0.0,6.0,16,0.00,,,0.00,Wunderground v.1.15,2013-05-12 21:05:00,
2013-05-12 14:10:00,84.5,34.9,29.99,NE,38,11.0,11.0,17,0.00,,,0.00,Wunderground v.1.15,2013-05-12 21:10:00,
2013-05-12 14:15:00,84.0,33.0,29.99,West,265,0.0,13.0,16,0.00,,,0.00,Wunderground v.1.15,2013-05-12 21:15:00,
2013-05-12 14:20:00,84.5,36.3,29.99,WNW,282,8.0,10.0,18,0.00,,,0.00,Wunderground v.1.15,2013-05-12 21:20:00,
2013-05-12 14:25:00,85.1,36.8,29.99,SSW,203,1.0,11.0,18,0.00,,,0.00,Wunderground v.1.15,2013-05-12 21:25:00,
2013-05-12 14:30:00,84.9,36.7,29.99,WSW,256,2.0,11.0,18,0.00,,,0.00,Wunderground v.1.15,2013-05-12 21:30:00,
2013-05-12 14:35:00,85.3,37.0,29.99,West,263,10.0,11.0,18,0.00,,,0.00,Wunderground v.1.15,2013-05-12 21:35:00,
2013-05-12 14:40:00,85.7,35.9,29.99,NW,322,6.0,6.0,17,0.00,,,0.00,Wunderground v.1.15,2013-05-12 21:40:00,
2013-05-12 14:45:00,85.5,35.7,29.97,NW,305,7.0,10.0,17,0.00,,,0.00,Wunderground v.1.15,2013-05-12 21:45:00,
2013-05-12 14:50:00,85.3,35.5,29.97,NW,323,9.0,9.0,17,0.00,,,0.00,Wunderground v.1.15,2013-05-12 21:50:00,
2013-05-12 14:55:00,85.7,35.9,29.97,West,271,8.0,9.0,17,0.00,,,0.00,Wunderground v.1.15,2013-05-12 21:55:00,
2013-05-12 15:00:00,86.3,36.3,29.96,SSW,212,2.0,7.0,17,0.00,,,0.00,Wunderground v.1.15,2013-05-12 22:00:00,
2013-05-12 15:05:00,86.7,33.5,29.96,SW,222,7.0,13.0,15,0.00,,,0.00,Wunderground v.1.15,2013-05-12 22:05:00,
2013-05-12 15:10:00,87.0,35.4,29.96,WSW,251,8.0,10.0,16,0.00,,,0.00,Wunderground v.1.15,2013-05-12 22:10:00,
2013-05-12 15:15:00,87.0,33.7,29.95,SW,222,4.0,11.0,15,0.00,,,0.00,Wunderground v.1.15,2013-05-12 22:15:00,
2013-05-12 15:20:00,87.0,35.4,29.95,SSW,203,4.0,6.0,16,0.00,,,0.00,Wunderground v.1.15,2013-05-12 22:20:00,
2013-05-12 15:25:00,87.2,35.5,29.95,West,265,1.0,9.0,16,0.00,,,0.00,Wunderground v.1.15,2013-05-12 22:25:00,
2013-05-12 15:30:00,87.4,38.7,29.94,SSW,212,9.0,9.0,18,0.00,,,0.00,Wunderground v.1.15,2013-05-12 22:30:00,
2013-05-12 15:35:00,87.2,37.1,29.94,WSW,258,7.0,9.0,17,0.00,,,0.00,Wunderground v.1.15,2013-05-12 22:35:00,
2013-05-12 15:40:00,86.7,38.1,29.94,WSW,253,9.0,9.0,18,0.00,,,0.00,Wunderground v.1.15,2013-05-12 22:40:00,
2013-05-12 15:45:00,85.5,38.5,29.95,WNW,296,8.0,13.0,19,0.00,,,0.00,Wunderground v.1.15,2013-05-12 22:45:00,
2013-05-12 15:50:00,84.9,38.0,29.95,WNW,294,11.0,13.0,19,0.00,,,0.00,Wunderground v.1.15,2013-05-12 22:50:00,
2013-05-12 15:55:00,84.5,40.3,29.95,WSW,258,13.0,13.0,21,0.00,,,0.00,Wunderground v.1.15,2013-05-12 22:55:00,
2013-05-12 16:00:00,84.7,40.4,29.94,SW,219,2.0,8.0,21,0.00,,,0.00,Wunderground v.1.15,2013-05-12 23:00:00,
2013-05-12 16:05:00,85.3,39.7,29.94,WSW,240,10.0,14.0,20,0.00,,,0.00,Wunderground v.1.15,2013-05-12 23:05:00,
2013-05-12 16:10:00,85.7,38.7,29.94,West,263,8.0,8.0,19,0.00,,,0.00,Wunderground v.1.15,2013-05-12 23:10:00,
2013-05-12 16:15:00,85.3,39.7,29.95,West,263,7.0,11.0,20,0.00,,,0.00,Wunderground v.1.15,2013-05-12 23:15:00,
2013-05-12 16:20:00,85.1,38.2,29.95,SW,222,4.0,9.0,19,0.00,,,0.00,Wunderground v.1.15,2013-05-12 23:20:00,
2013-05-12 16:25:00,84.9,38.0,29.95,West,270,7.0,16.0,19,0.00,,,0.00,Wunderground v.1.15,2013-05-12 23:25:00,
2013-05-12 16:30:00,85.3,38.4,29.96,NW,315,2.0,7.0,19,0.00,,,0.00,Wunderground v.1.15,2013-05-12 23:30:00,
2013-05-12 16:35:00,85.5,38.5,29.96,West,261,10.0,15.0,19,0.00,,,0.00,Wunderground v.1.15,2013-05-12 23:35:00,
2013-05-12 16:40:00,85.5,38.5,29.96,SW,230,0.0,9.0,19,0.00,,,0.00,Wunderground v.1.15,2013-05-12 23:40:00,
2013-05-12 16:45:00,85.7,38.7,29.94,West,265,10.0,15.0,19,0.00,,,0.00,Wunderground v.1.15,2013-05-12 23:45:00,
2013-05-12 16:50:00,85.1,38.2,29.94,WSW,254,6.0,14.0,19,0.00,,,0.00,Wunderground v.1.15,2013-05-12 23:50:00,
2013-05-12 16:56:00,84.7,39.2,29.94,SSW,205,1.0,14.0,20,0.00,,,0.00,Wunderground v.1.15,2013-05-12 23:56:00,
2013-05-12 17:01:00,84.9,38.0,29.95,West,278,9.0,16.0,19,0.00,,,0.00,Wunderground v.1.15,2013-05-13 00:01:00,
2013-05-12 17:06:00,84.9,38.0,29.95,West,278,2.0,16.0,19,0.00,,,0.00,Wunderground v.1.15,2013-05-13 00:06:00,
2013-05-12 17:11:00,84.7,40.4,29.95,West,267,6.0,7.0,21,0.00,,,0.00,Wunderground v.1.15,2013-05-13 00:11:00,
2013-05-12 17:16:00,85.1,38.2,29.95,NNW,329,0.0,16.0,19,0.00,,,0.00,Wunderground v.1.15,2013-05-13 00:16:00,
2013-05-12 17:21:00,85.1,38.2,29.95,WSW,248,8.0,8.0,19,0.00,,,0.00,Wunderground v.1.15,2013-05-13 00:21:00,
2013-05-12 17:26:00,84.9,39.3,29.95,WSW,247,11.0,14.0,20,0.00,,,0.00,Wunderground v.1.15,2013-05-13 00:26:00,
2013-05-12 17:31:00,84.7,39.2,29.95,SSW,199,6.0,10.0,20,0.00,,,0.00,Wunderground v.1.15,2013-05-13 00:31:00,
2013-05-12 17:36:00,83.6,38.3,29.95,West,270,0.0,10.0,20,0.00,,,0.00,Wunderground v.1.15,2013-05-13 00:36:00,
2013-05-12 17:41:00,83.8,38.4,29.95,West,264,4.0,7.0,20,0.00,,,0.00,Wunderground v.1.15,2013-05-13 00:41:00,
2013-05-12 17:46:00,84.1,37.4,29.94,WNW,294,2.0,11.0,19,0.00,,,0.00,Wunderground v.1.15,2013-05-13 00:46:00,
2013-05-12 17:51:00,84.1,38.7,29.94,SW,236,8.0,11.0,20,0.00,,,0.00,Wunderground v.1.15,2013-05-13 00:51:00,
2013-05-12 17:56:00,84.0,38.6,29.94,WSW,258,2.0,11.0,20,0.00,,,0.00,Wunderground v.1.15,2013-05-13 00:56:00,
2013-05-12 18:01:00,84.1,37.4,29.94,SW,234,6.0,13.0,19,0.00,,,0.00,Wunderground v.1.15,2013-05-13 01:01:00,
2013-05-12 18:06:00,83.6,38.3,29.94,West,265,4.0,13.0,20,0.00,,,0.00,Wunderground v.1.15,2013-05-13 01:06:00,
2013-05-12 18:11:00,83.4,38.1,29.94,West,272,7.0,9.0,20,0.00,,,0.00,Wunderground v.1.15,2013-05-13 01:11:00,
2013-05-12 18:17:00,83.0,37.8,29.94,SW,236,8.0,14.0,20,0.00,,,0.00,Wunderground v.1.15,2013-05-13 01:17:00,
2013-05-12 18:22:00,82.2,37.1,29.94,West,261,4.0,9.0,20,0.00,,,0.00,Wunderground v.1.15,2013-05-13 01:22:00,
2013-05-12 18:27:00,81.6,37.9,29.94,WSW,257,4.0,9.0,21,0.00,,,0.00,Wunderground v.1.15,2013-05-13 01:27:00,
2013-05-12 18:33:00,81.4,37.7,29.95,West,265,6.0,10.0,21,0.00,,,0.00,Wunderground v.1.15,2013-05-13 01:33:00,
2013-05-12 18:38:00,81.2,37.5,29.95,West,265,6.0,10.0,21,0.00,,,0.00,Wunderground v.1.15,2013-05-13 01:38:00,
2013-05-12 18:43:00,81.1,37.5,29.95,WSW,250,4.0,9.0,21,0.00,,,0.00,Wunderground v.1.15,2013-05-13 01:43:00,
2013-05-12 18:48:00,81.1,37.5,29.95,WSW,247,2.0,9.0,21,0.00,,,0.00,Wunderground v.1.15,2013-05-13 01:48:00,
2013-05-12 18:53:00,80.7,37.1,29.95,West,278,1.0,10.0,21,0.00,,,0.00,Wunderground v.1.15,2013-05-13 01:53:00,
2013-05-12 18:59:00,80.3,38.0,29.96,West,261,4.0,10.0,22,0.00,,,0.00,Wunderground v.1.15,2013-05-13 01:59:00,
2013-05-12 19:04:00,79.9,37.6,29.96,West,264,0.0,6.0,22,0.00,,,0.00,Wunderground v.1.15,2013-05-13 02:04:00,
2013-05-12 19:09:00,79.2,37.1,29.96,NW,313,2.0,7.0,22,0.00,,,0.00,Wunderground v.1.15,2013-05-13 02:09:00,
2013-05-12 19:14:00,79.0,35.7,29.91,WSW,248,0.0,6.0,21,0.00,,,0.00,Wunderground v.1.15,2013-05-13 02:14:00,
2013-05-12 19:19:00,78.8,35.5,29.91,West,280,2.0,8.0,21,0.00,,,0.00,Wunderground v.1.15,2013-05-13 02:19:00,
2013-05-12 19:25:00,78.5,37.6,29.91,WSW,237,0.0,8.0,23,0.00,,,0.00,Wunderground v.1.15,2013-05-13 02:25:00,
2013-05-12 19:30:00,78.5,36.5,29.91,WSW,239,0.0,1.0,22,0.00,,,0.00,Wunderground v.1.15,2013-05-13 02:30:00,
2013-05-12 19:35:00,78.3,37.4,29.91,WNW,291,1.0,4.0,23,0.00,,,0.00,Wunderground v.1.15,2013-05-13 02:35:00,
2013-05-12 19:40:00,77.4,36.7,29.91,NW,322,1.0,1.0,23,0.00,,,0.00,Wunderground v.1.15,2013-05-13 02:40:00,
2013-05-12 19:45:00,76.1,36.7,29.93,WNW,289,2.0,7.0,24,0.00,,,0.00,Wunderground v.1.15,2013-05-13 02:45:00,
2013-05-12 19:50:00,75.3,36.0,29.93,West,264,1.0,2.0,24,0.00,,,0.00,Wunderground v.1.15,2013-05-13 02:50:00,
2013-05-12 19:55:00,74.7,36.5,29.93,West,277,0.0,6.0,25,0.00,,,0.00,Wunderground v.1.15,2013-05-13 02:55:00,
2013-05-12 20:00:00,74.2,36.1,29.94,West,277,0.0,1.0,25,0.00,,,0.00,Wunderground v.1.15,2013-05-13 03:00:00,
2013-05-12 20:05:00,73.7,36.7,29.94,West,280,0.0,1.0,26,0.00,,,0.00,Wunderground v.1.15,2013-05-13 03:05:00,
2013-05-12 20:10:00,73.3,36.3,29.94,WNW,284,0.0,0.0,26,0.00,,,0.00,Wunderground v.1.15,2013-05-13 03:10:00,
2013-05-12 20:15:00,73.0,36.1,29.93,WNW,284,0.0,1.0,26,0.00,,,0.00,Wunderground v.1.15,2013-05-13 03:15:00,
2013-05-12 20:20:00,72.7,35.8,29.93,ESE,110,1.0,1.0,26,0.00,,,0.00,Wunderground v.1.15,2013-05-13 03:20:00,
2013-05-12 20:25:00,72.0,38.0,29.93,ESE,110,2.0,2.0,29,0.00,,,0.00,Wunderground v.1.15,2013-05-13 03:25:00,
2013-05-12 20:30:00,70.8,40.3,29.94,ESE,110,1.0,1.0,33,0.00,,,0.00,Wunderground v.1.15,2013-05-13 03:30:00,
2013-05-12 20:35:00,69.8,39.4,29.94,ESE,110,1.0,1.0,33,0.00,,,0.00,Wunderground v.1.15,2013-05-13 03:35:00,
2013-05-12 20:40:00,68.9,38.6,29.94,ESE,110,0.0,0.0,33,0.00,,,0.00,Wunderground v.1.15,2013-05-13 03:40:00,
2013-05-12 20:45:00,68.1,38.7,29.96,ESE,110,0.0,1.0,34,0.00,,,0.00,Wunderground v.1.15,2013-05-13 03:45:00,
2013-05-12 20:51:00,67.3,39.4,29.96,ESE,110,0.0,0.0,36,0.00,,,0.00,Wunderground v.1.15,2013-05-13 03:51:00,
2013-05-12 20:56:00,66.6,38.8,29.96,ESE,110,0.0,1.0,36,0.00,,,0.00,Wunderground v.1.15,2013-05-13 03:56:00,
2013-05-12 21:01:00,66.3,37.8,29.97,ENE,65,2.0,2.0,35,0.00,,,0.00,Wunderground v.1.15,2013-05-13 04:01:00,
2013-05-12 21:02:00,66.3,37.1,29.97,ENE,64,0.0,2.0,34,0.00,,,0.00,Wunderground v.1.15,2013-05-13 04:02:00,
2013-05-12 21:07:00,66.4,36.4,29.97,ENE,64,0.0,2.0,33,0.00,,,0.00,Wunderground v.1.15,2013-05-13 04:07:00,
2013-05-12 21:12:00,66.3,37.8,29.97,ENE,65,0.0,1.0,35,0.00,,,0.00,Wunderground v.1.15,2013-05-13 04:12:00,
2013-05-12 21:17:00,66.1,36.9,29.96,ENE,65,0.0,2.0,34,0.00,,,0.00,Wunderground v.1.15,2013-05-13 04:17:00,
2013-05-12 21:22:00,66.0,36.8,29.96,East,86,0.0,1.0,34,0.00,,,0.00,Wunderground v.1.15,2013-05-13 04:22:00,
2013-05-12 21:27:00,65.8,35.1,29.96,East,86,0.0,1.0,32,0.00,,,0.00,Wunderground v.1.15,2013-05-13 04:27:00,
2013-05-12 21:32:00,66.3,34.7,29.96,East,86,0.0,1.0,31,0.00,,,0.00,Wunderground v.1.15,2013-05-13 04:32:00,
2013-05-12 21:37:00,66.4,37.2,29.96,East,86,0.0,1.0,34,0.00,,,0.00,Wunderground v.1.15,2013-05-13 04:37:00,
2013-05-12 21:42:00,66.3,37.8,29.96,East,86,0.0,0.0,35,0.00,,,0.00,Wunderground v.1.15,2013-05-13 04:42:00,
2013-05-12 21:47:00,65.6,37.9,29.97,East,86,2.0,2.0,36,0.00,,,0.00,Wunderground v.1.15,2013-05-13 04:47:00,
2013-05-12 21:52:00,64.8,39.2,29.97,ENE,75,1.0,1.0,39,0.00,,,0.00,Wunderground v.1.15,2013-05-13 04:52:00,
2013-05-12 21:57:00,63.9,39.1,29.97,ENE,75,0.0,2.0,40,0.00,,,0.00,Wunderground v.1.15,2013-05-13 04:57:00,
2013-05-12 22:02:00,63.2,38.5,29.98,ENE,75,0.0,1.0,40,0.00,,,0.00,Wunderground v.1.15,2013-05-13 05:02:00,
2013-05-12 22:07:00,62.7,39.3,29.98,ENE,75,0.0,1.0,42,0.00,,,0.00,Wunderground v.1.15,2013-05-13 05:07:00,
2013-05-12 22:12:00,62.3,39.5,29.98,ENE,75,0.0,0.0,43,0.00,,,0.00,Wunderground v.1.15,2013-05-13 05:12:00,
2013-05-12 22:17:00,62.0,38.6,29.96,ENE,75,0.0,1.0,42,0.00,,,0.00,Wunderground v.1.15,2013-05-13 05:17:00,
2013-05-12 22:22:00,61.6,39.5,29.96,ENE,75,1.0,2.0,44,0.00,,,0.00,Wunderground v.1.15,2013-05-13 05:22:00,
2013-05-12 22:27:00,61.3,37.4,29.96,East,88,4.0,4.0,41,0.00,,,0.00,Wunderground v.1.15,2013-05-13 05:27:00,
2013-05-12 22:32:00,61.3,36.8,29.97,East,88,0.0,2.0,40,0.00,,,0.00,Wunderground v.1.15,2013-05-13 05:32:00,
2013-05-12 22:37:00,61.3,36.8,29.97,East,88,0.0,2.0,40,0.00,,,0.00,Wunderground v.1.15,2013-05-13 05:37:00,
2013-05-12 22:42:00,61.3,36.8,29.97,SE,124,1.0,4.0,40,0.00,,,0.00,Wunderground v.1.15,2013-05-13 05:42:00,
2013-05-12 22:47:00,61.5,36.3,29.97,ESE,104,1.0,6.0,39,0.00,,,0.00,Wunderground v.1.15,2013-05-13 05:47:00,
2013-05-12 22:52:00,61.8,37.2,29.97,East,100,1.0,6.0,40,0.00,,,0.00,Wunderground v.1.15,2013-05-13 05:52:00,
2013-05-12 22:57:00,61.8,37.8,29.97,East,100,0.0,6.0,41,0.00,,,0.00,Wunderground v.1.15,2013-05-13 05:57:00,
2013-05-12 23:02:00,61.8,36.6,29.96,East,100,1.0,1.0,39,0.00,,,0.00,Wunderground v.1.15,2013-05-13 06:02:00,
2013-05-12 23:07:00,61.8,37.2,29.96,East,100,1.0,2.0,40,0.00,,,0.00,Wunderground v.1.15,2013-05-13 06:07:00,
2013-05-12 23:12:00,61.8,37.2,29.96,East,100,0.0,2.0,40,0.00,,,0.00,Wunderground v.1.15,2013-05-13 06:12:00,
2013-05-12 23:17:00,61.6,37.0,29.94,East,100,0.0,2.0,40,0.00,,,0.00,Wunderground v.1.15,2013-05-13 06:17:00,
2013-05-12 23:22:00,61.5,37.6,29.94,East,100,0.0,1.0,41,0.00,,,0.00,Wunderground v.1.15,2013-05-13 06:22:00,
2013-05-12 23:27:00,61.3,37.4,29.94,East,100,0.0,1.0,41,0.00,,,0.00,Wunderground v.1.15,2013-05-13 06:27:00,
2013-05-12 23:32:00,61.2,37.9,29.95,East,100,2.0,2.0,42,0.00,,,0.00,Wunderground v.1.15,2013-05-13 06:32:00,
2013-05-12 23:37:00,60.9,38.2,29.95,East,100,4.0,6.0,43,0.00,,,0.00,Wunderground v.1.15,2013-05-13 06:37:00,
2013-05-12 23:42:00,60.7,38.1,29.95,East,92,4.0,8.0,43,0.00,,,0.00,Wunderground v.1.15,2013-05-13 06:42:00,
2013-05-12 23:47:00,60.7,38.6,29.95,East,96,1.0,8.0,44,0.00,,,0.00,Wunderground v.1.15,2013-05-13 06:47:00,
2013-05-12 23:52:00,60.5,39.0,29.95,East,96,0.0,3.0,45,0.00,,,0.00,Wunderground v.1.15,2013-05-13 06:52:00,
2013-05-12 23:58:00,60.2,38.8,29.95,East,96,0.0,3.0,45,0.00,,,0.00,Wunderground v.1.15,2013-05-13 06:58:00,